Regional Weather Roundup
Issued by NWS

Home | Current Version | Previous Version | Text Only | Print | Product List | Glossary Off
Versions: 1 2 3 4 5 6 7 8 9 10 11 12 13 14 15 16 17 18 19 20 21 22 23 24 25 26 27 28 29 30 31 32 33 34 35 36 37 38 39 40 41 42 43 44 45 46 47 48 49 50

000
ASUS43 KMKX 242238
RWRWI

WISCONSIN REGIONAL WEATHER ROUNDUP
NATIONAL WEATHER SERVICE MILWAUKEE/SULLIVAN WI
600 PM CDT SUN MAY 24 2015

NOTE: "FAIR" INDICATES FEW OR NO CLOUDS BELOW 12,000 FEET WITH NO
SIGNIFICANT WEATHER AND/OR OBSTRUCTIONS TO VISIBILITY.

WIZ001-002-006>008-014>016-023>028-250000-
NORTHWEST WISCONSIN

CITY           SKY/WX    TMP DP  RH WIND       PRES   REMARKS
SUPERIOR ARPT  CLOUDY    66  47  48 S5        29.97S
ASHLAND        CLOUDY    71  49  45 E6        29.97F
HAYWARD        LGT RAIN  62  57  83 S3        30.00F
SIREN          RAIN      60  58  90 E3        29.98F
CUMBERLAND     LGT RAIN  59  55  88 E8        29.97F
RICE LAKE      LGT RAIN  60  56  87 E9        29.99F
CHETEK         LGT RAIN  60  58  94 E9        29.97F
LADYSMITH      LGT RAIN  60  57  91 E7        30.01F
EAU CLAIRE     RAIN      59  57  93 E10       29.94F FOG
MENOMONIE      LGT RAIN  60  58  94 E10       29.95F
NEW RICHMOND   LGT RAIN  59  59  98 E13       29.94F
OSCEOLA        LGT RAIN  60  60 100 E6        29.97F
$$

WIZ003>005-009-010-017-018-250000-
NORTH CENTRAL WISCONSIN

CITY           SKY/WX    TMP DP  RH WIND       PRES   REMARKS
MANITOWISH WTR CLOUDY    65  53  65 S12       30.02S
ARBOR VITAE    LGT RAIN  63  54  73 S12       30.03S
WOODRUFF       LGT RAIN  63  54  73 S12       30.03S
RHINELANDER    LGT RAIN  60  57  89 S6        30.05F
EAGLE RIVER    CLOUDY    66  50  57 S9        30.03S
LAND O LAKES   CLOUDY    71  49  46 S10G16    30.02S
PHILLIPS       LGT RAIN  59  56  91 SE6       30.02F
TOMAHAWK       LGT RAIN  58  55  92 SE3       30.04F
MEDFORD        LGT RAIN  57  55  94 SE9       30.01F
MERRILL        RAIN      58  57  96 SE8       30.04F
$$

WIZ029-030-035-036-043>047-250000-
CENTRAL WISCONSIN

CITY           SKY/WX    TMP DP  RH WIND       PRES   REMARKS
WAUSAU         LGT RAIN  59  56  89 SE13      30.01F
MOSINEE        LGT RAIN  57  57 100 E10       30.03F
MARSHFIELD     RAIN      58  55  90 E13       30.00F FOG
STEVENS POINT  RAIN      56  55  97 SE7       30.03F
WAUPACA        HVY RAIN  60  59  95 E8        30.03F
WAUTOMA        LGT RAIN  59  59 100 E7        30.02F FOG
WISC RAPIDS    RAIN      58  55  90 SE8       30.03F FOG
CAMP DOUGLAS   LGT RAIN  58  58 100 E10       29.97F FOG
$$

WIZ011>013-019>022-031-037>040-048>050-250000-
NORTHEAST WISCONSIN

CITY           SKY/WX    TMP DP  RH WIND       PRES   REMARKS
ANTIGO         LGT RAIN  56  55  95 SE8       30.06F
SHAWANO        RAIN      62  58  88 SE5       30.06F
OCONTO         CLOUDY    60  58  96 CALM      30.06F
STURGEON BAY   CLOUDY    59  52  77 S8        30.10F
GREEN BAY      LGT RAIN  62  58  86 SE7       30.06F FOG
MANITOWOC      RAIN      52  51  97 SE10      30.09F FOG
APPLETON       LGT RAIN  59  57  94 E9        30.05F
CLINTONVILLE   LGT RAIN  61  57  88 E6        30.04F
OSHKOSH        RAIN      58  55  90 SE12      30.03F FOG
$$

WIZ032>034-041-042-053>061-250000-
SOUTHWEST WISCONSIN

CITY           SKY/WX    TMP DP  RH WIND       PRES   REMARKS
LA CROSSE      LGT RAIN  61  57  87 SE7G18    29.91F
SPARTA         LGT RAIN  58  56  93 E13G21    29.95F
VIROQUA        CLOUDY    58  58 100 E20G26    29.93F
BOSCOBEL       LGT RAIN  61  58  90 E5        29.95F
PRAIRIE DU CHI CLOUDY    62  58  88 E14       29.89F
PLATTEVILLE    CLOUDY    61  60  94 E16G22    29.93F
$$

WIZ056-057-062-063-064-067-068-250000-
SOUTH CENTRAL WISCONSIN

CITY           SKY/WX    TMP DP  RH WIND       PRES   REMARKS
REEDSBURG      RAIN      56  56  97 E7        29.98F
BARABOO/DELLS  LGT RAIN  56  54  92 E9        29.98F
LONE ROCK      RAIN      59  56  89 E10       29.97S FOG
MINERAL POINT  LGT RAIN  59  59 100 SE3       29.95F
MADISON        LGT RAIN  59  55  87 E16       29.97F
MIDDLETON      CLOUDY    61  59  92 E15G21    29.97F
WATERTOWN      LGT RAIN  57  57 100 E14G24    29.99F
MONROE         CLOUDY    61  59  94 E15       29.94F
JANESVILLE     LGT RAIN  64  55  72 E17G23    29.97F
$$

WIZ051-052-058>065-066-070>072-250000-
SOUTHEAST WISCONSIN

CITY           SKY/WX    TMP DP  RH WIND       PRES   REMARKS
MILWAUKEE      LGT RAIN  52  48  86 VRB3      30.06R FOG
WAUKESHA       LGT RAIN  54  52  94 E12       30.06S FOG
MILWAUKEE/TIMM RAIN      54  52  94 NE7       30.06S
RACINE         LGT RAIN  56  49  77 VRB6      30.06S
BURLINGTON     LGT RAIN  57  54  89 E9        30.02F
KENOSHA        LGT RAIN  58  54  86 CALM      30.05R FOG
FOND DU LAC    RAIN      58  54  86 SE10      30.04F FOG
SHEBOYGAN      RAIN      56  53  90 E8        30.07S FOG
WEST BEND      LGT RAIN  55  54  94 E8        30.06S
JUNEAU         LGT RAIN  56  54  92 E16       30.02F
$$

LSZ147-162-250000-
LAKE SUPERIOR

STATION/POSITION TIME  TEMP    WIND        PRES    WAVE
                       AIR SEA DIR/SP/G            HT/PER
                 (UTC) (F)     (DEG/KT/KT) (MB)    (FT/S)
W MID LAKE BUOY  2150   48 37   30/  6/ 10   N/A     0
DEVILS ISLAND    2200   68      50/  3/  3   N/A
PORT WING        2100   54      10/  8/ 10   N/A
SAXON HARBOR     2140   60        CALM       N/A
$$

LMZ867-665-643>646-250000-
LAKE MICHIGAN

STATION/POSITION TIME  TEMP    WIND        PRES    WAVE
                       AIR SEA DIR/SP/G            HT/PER
                 (UTC) (F)     (DEG/KT/KT) (MB)    (FT/S)
CHAMBERS ISLAND  2100   62     210/  7/ 19   N/A
N MID LAKE BUOY  2150   44 36  210/ 12/ 14   N/A     1/ 3
NORTHPORT PIER   2100   65     160/  6/ 12   N/A
SISTER BAY       2103   64     180/ 11/ 13   N/A
KEWAUNEE LAKESHO 2100   52     160/  2/  5   N/A
SHEBOYGAN LAKESH 2200   48      90/  4/  5   N/A
PORT WASHINGTON  2140   49      30/  9/ 11   N/A
ATWATER BUOY     2200   48 47  340/  6/  8   N/A
MILWAUKEE LAKESH 2200   51      30/  8/  9   N/A
S MID LAKE BUOY  2150   47 38   80/ 12/ 12   N/A     1
$$

TC  - TEMPERATURE IN CELSIUS
VSB - VISIBILITY IN STATUTE MILES
WCI - WIND CHILL INDEX
HX  - HEAT INDEX



USA.gov is the U.S. government's official web portal to all federal, state and local government web resources and services.